Find GPS IIR-14(M)

NORAD ID: 28874 Int'l Des: 2005-038 Owner: AFSMC Country: US Constellation: GPS operational
MEOGNSS

Live Position

Loading 3D Globe...

About GPS IIR-14(M)

Description loading...

Upcoming Passes

Passes for default location (London). Set your location on the main map for personalized predictions.

Altitude History

Loading altitude history...

Two-Line Element Set

1 28874U 05038A 26104.54425579 -.00000004 00000-0 00000+0 0 9993
2 28874 54.9313 275.7443 0127906 295.7740 71.3292 2.00570082150562
Epoch: Apr 14, 2026 • Age: 10 hours

Current Status

Altitude 19866.9 km
Velocity 3.92 km/s
Sub-Earth Point -37.73°S, 52.16°E
Launch Date Sep 26, 2005
Age 20.5 years
Type navigation

Technical Details

Classification Payload
Mass 1077.00 kg
Dry Mass 910.00 kg
Total Mass 2032.00 kg
Length 1.50 m
Diameter 1.90 m
Span 19.30 m
Shape Box + 2 Pan
Manufacturer LMVF
Bus Type Series 4000
Phase Status In Orbit
Owner/State AFSMC/US

Most Searched